RYR39QA LPFR-EDLV

Flight info

Callsign RYR39QA
Flight time N/A
Altitude 34000
Route TUPIX Y135 NAPES N747 PIMUR M30 OXACA DCT PARKA Z165 SOTUK Z230 TLD N858 DGO L176 LUSEM DCT LULUT DCT ADABI DCT BOKNO DCT DIBES DCT VIQAQ DCT TSU UN858 OQQAL DCT RANUX DCT VALEK DCT LUTAX UM163 DIK N853 ARCKY T853 IBESA T474 LAA
Aircraft B738/M-SDE2E3FGHIRWXY/LB1

Departure

Time N/A
Airport Faro - Gago Coutinho International Airport (LPFR)

Arrival

Time 2026-05-04 07:38
Airport Weeze (Niederrhein) Airport (EDLV)
Time Latitude Longitude Altitude Speed Heading
2026-05-04 05:40 40.23093 -4.17733 33984 ft 511 kts 20°
2026-05-04 05:40 40.29523 -4.13798 33978 ft 510 kts 20°
2026-05-04 05:41 40.35917 -4.09878 33971 ft 510 kts 20°
2026-05-04 05:41 40.42382 -4.05901 34011 ft 510 kts 20°
2026-05-04 05:42 40.48763 -4.01967 33974 ft 510 kts 20°
2026-05-04 05:42 40.55094 -3.98055 33975 ft 509 kts 20°
2026-05-04 05:43 40.61500 -3.94088 33983 ft 508 kts 20°
2026-05-04 05:45 40.87006 -3.78212 33982 ft 506 kts 21°
2026-05-04 05:47 41.12518 -3.62195 33993 ft 508 kts 21°
2026-05-04 05:47 41.18943 -3.58319 33982 ft 506 kts 18°
2026-05-04 05:48 41.25463 -3.54816 33981 ft 505 kts 17°
2026-05-04 05:48 41.31984 -3.51324 33998 ft 504 kts 18°
2026-05-04 05:49 41.38430 -3.47799 33979 ft 504 kts 18°
2026-05-04 05:49 41.44905 -3.44230 33979 ft 503 kts 18°
2026-05-04 05:51 41.70684 -3.29998 33982 ft 499 kts 19°
2026-05-04 05:52 41.77097 -3.26439 33990 ft 499 kts 19°
2026-05-04 05:52 41.83513 -3.22872 33978 ft 499 kts 19°
2026-05-04 05:54 42.09112 -3.08557 33977 ft 498 kts 20°
2026-05-04 05:55 42.15507 -3.04960 33948 ft 498 kts 19°
2026-05-04 05:55 42.21902 -3.01356 33981 ft 498 kts 20°
2026-05-04 05:56 42.28211 -2.97794 33967 ft 500 kts 20°
2026-05-04 05:56 42.34626 -2.94162 33986 ft 499 kts 20°
2026-05-04 05:57 42.41036 -2.90525 33978 ft 500 kts 20°
2026-05-04 05:57 42.47155 -2.86040 33973 ft 503 kts 37°
2026-05-04 05:58 42.52376 -2.79835 33973 ft 503 kts 42°
2026-05-04 05:58 42.57534 -2.73444 33973 ft 502 kts 42°
2026-05-04 05:59 42.62726 -2.67097 33962 ft 502 kts 41°
2026-05-04 05:59 42.67950 -2.60768 33968 ft 502 kts 41°
2026-05-04 06:00 42.73168 -2.54445 33975 ft 503 kts 41°
2026-05-04 06:00 42.78387 -2.48097 33974 ft 503 kts 41°
2026-05-04 06:01 42.83597 -2.41742 33979 ft 503 kts 41°
2026-05-04 06:03 43.04478 -2.16098 33992 ft 504 kts 41°
2026-05-04 06:05 43.27674 -1.87284 33952 ft 499 kts 42°
2026-05-04 06:06 43.33045 -1.81303 33957 ft 497 kts 29°
2026-05-04 06:06 43.39108 -1.76792 33966 ft 496 kts 28°
2026-05-04 06:07 43.44964 -1.71706 33972 ft 499 kts 33°
2026-05-04 06:07 43.49900 -1.67087 33970 ft 499 kts 33°
2026-05-04 06:08 43.55666 -1.61723 33964 ft 500 kts 33°
2026-05-04 06:08 43.61467 -1.56418 33961 ft 500 kts 32°
2026-05-04 06:09 43.67293 -1.51123 33931 ft 501 kts 32°
2026-05-04 06:11 43.90518 -1.29879 33944 ft 500 kts 33°
2026-05-04 06:13 44.13557 -1.08593 33932 ft 496 kts 33°
2026-05-04 06:14 44.33552 -0.89953 33935 ft 496 kts 33°
2026-05-04 06:15 44.39291 -0.84599 33934 ft 496 kts 32°
2026-05-04 06:15 44.45467 -0.80324 33945 ft 495 kts 22°
2026-05-04 06:16 44.51831 -0.76587 33933 ft 496 kts 21°
2026-05-04 06:16 44.58186 -0.72823 33941 ft 496 kts 22°
2026-05-04 06:17 44.64484 -0.68999 33932 ft 496 kts 22°
2026-05-04 06:17 44.70810 -0.65109 33945 ft 497 kts 22°
2026-05-04 06:18 44.77146 -0.61199 33939 ft 497 kts 22°
2026-05-04 06:20 45.02457 -0.45511 33943 ft 497 kts 22°
2026-05-04 06:21 45.18263 -0.35639 33933 ft 497 kts 23°
2026-05-04 06:22 45.24584 -0.31674 33945 ft 496 kts 23°
2026-05-04 06:25 45.67581 -0.04443 33934 ft 493 kts 23°
2026-05-04 06:26 45.73849 -0.00435 33916 ft 493 kts 23°
2026-05-04 06:26 45.80002 0.03509 33933 ft 491 kts 24°
2026-05-04 06:27 45.95571 0.13531 33939 ft 490 kts 24°
2026-05-04 06:28 46.01798 0.17557 33942 ft 491 kts 24°
2026-05-04 06:28 46.08035 0.21600 33933 ft 492 kts 24°
2026-05-04 06:29 46.14272 0.25653 33937 ft 492 kts 24°
2026-05-04 06:29 46.20474 0.29693 33943 ft 492 kts 24°
2026-05-04 06:30 46.26711 0.33765 33954 ft 493 kts 24°
2026-05-04 06:30 46.32968 0.37862 33927 ft 494 kts 24°
2026-05-04 06:31 46.39223 0.41968 33924 ft 492 kts 24°
2026-05-04 06:31 46.45456 0.46070 33936 ft 491 kts 25°
2026-05-04 06:33 46.71302 0.58135 33942 ft 489 kts 11°
2026-05-04 06:34 46.77954 0.60290 33934 ft 489 kts 12°
2026-05-04 06:34 46.84594 0.62495 33937 ft 489 kts 12°
2026-05-04 06:36 47.10443 0.74040 33943 ft 489 kts 33°
2026-05-04 06:37 47.16219 0.79341 33943 ft 489 kts 33°
2026-05-04 06:37 47.22006 0.84599 33929 ft 489 kts 33°
2026-05-04 06:38 47.27815 0.89808 33948 ft 490 kts 33°
2026-05-04 06:40 47.51095 1.10749 33944 ft 493 kts 32°
2026-05-04 06:40 47.57126 1.15624 33941 ft 494 kts 29°
2026-05-04 06:41 47.63198 1.20258 33944 ft 494 kts 29°
2026-05-04 06:41 47.69295 1.24967 33939 ft 493 kts 29°
2026-05-04 06:42 47.75225 1.29620 33943 ft 493 kts 29°
2026-05-04 06:44 47.99492 1.48849 33952 ft 495 kts 29°
2026-05-04 06:44 48.05567 1.53692 33969 ft 495 kts 29°
2026-05-04 06:45 48.11631 1.58540 33958 ft 496 kts 29°
2026-05-04 06:45 48.17695 1.63394 33954 ft 494 kts 29°
2026-05-04 06:46 48.23761 1.68254 33957 ft 493 kts 29°
2026-05-04 06:46 48.29805 1.73110 33928 ft 493 kts 29°
2026-05-04 06:48 48.54090 1.92769 33964 ft 499 kts 29°
2026-05-04 06:50 48.76464 2.16113 33967 ft 484 kts 71°
2026-05-04 06:51 48.78341 2.25758 33967 ft 476 kts 82°
2026-05-04 06:51 48.79976 2.35498 33963 ft 478 kts 81°
2026-05-04 06:52 48.81684 2.45258 33967 ft 479 kts 80°
2026-05-04 06:52 48.83425 2.55035 33964 ft 481 kts 80°
2026-05-04 06:53 48.85162 2.64850 33945 ft 481 kts 81°
2026-05-04 06:53 48.86888 2.74681 33970 ft 483 kts 81°
2026-05-04 06:54 48.88434 2.84611 33979 ft 486 kts 84°
2026-05-04 06:54 48.90209 2.94621 33958 ft 493 kts 81°
2026-05-04 06:55 48.91971 3.04451 33955 ft 483 kts 80°
2026-05-04 06:55 48.93745 3.14311 33962 ft 485 kts 80°
2026-05-04 06:57 49.00549 3.54467 33943 ft 493 kts 81°
2026-05-04 06:58 49.02236 3.64571 33961 ft 492 kts 81°
2026-05-04 06:58 49.03909 3.74661 33961 ft 491 kts 81°
2026-05-04 06:59 49.05573 3.84749 33968 ft 490 kts 81°
2026-05-04 06:59 49.07226 3.94838 33972 ft 490 kts 81°
2026-05-04 07:01 49.13737 4.35119 33972 ft 491 kts 80°
2026-05-04 07:02 49.16086 4.44997 33947 ft 497 kts 70°
2026-05-04 07:02 49.18805 4.54629 33967 ft 497 kts 70°
2026-05-04 07:03 49.21518 4.64361 33981 ft 497 kts 70°
2026-05-04 07:03 49.24166 4.74140 33975 ft 497 kts 71°
2026-05-04 07:04 49.26783 4.83944 33980 ft 498 kts 71°
2026-05-04 07:04 49.29393 4.93764 33974 ft 497 kts 71°
2026-05-04 07:05 49.31964 5.03458 33978 ft 497 kts 71°
2026-05-04 07:05 49.34556 5.13272 33978 ft 496 kts 71°
2026-05-04 07:06 49.38426 5.28003 33983 ft 495 kts 71°
2026-05-04 07:07 49.40990 5.37815 33964 ft 495 kts 71°
2026-05-04 07:09 49.51728 5.76530 33989 ft 498 kts 53°
2026-05-04 07:09 49.56784 5.83759 33998 ft 498 kts 33°
2026-05-04 07:10 49.61626 5.88545 33991 ft 497 kts 30°
2026-05-04 07:12 49.84884 6.11008 33779 ft 494 kts 18°
2026-05-04 07:12 49.88116 6.12536 33140 ft 489 kts
2026-05-04 07:12 49.91448 6.13255 32498 ft 480 kts 358°
2026-05-04 07:12 49.94777 6.13288 31722 ft 479 kts 355°
2026-05-04 07:13 49.98115 6.13218 30922 ft 480 kts 355°
2026-05-04 07:13 50.01451 6.13149 30294 ft 478 kts 355°
2026-05-04 07:13 50.04762 6.13111 29773 ft 472 kts 355°
2026-05-04 07:14 50.17624 6.13146 27350 ft 455 kts 356°
2026-05-04 07:14 50.20780 6.13161 26751 ft 451 kts 356°
2026-05-04 07:15 50.23908 6.13175 26181 ft 448 kts 356°
2026-05-04 07:15 50.27012 6.13346 25606 ft 447 kts
2026-05-04 07:15 50.30054 6.14375 25055 ft 448 kts 16°
2026-05-04 07:15 50.32934 6.16213 24522 ft 446 kts 27°
2026-05-04 07:16 50.35552 6.18754 23974 ft 439 kts 34°
2026-05-04 07:16 50.38064 6.21447 23227 ft 436 kts 34°
2026-05-04 07:16 50.40556 6.24122 22441 ft 432 kts 34°
2026-05-04 07:16 50.43033 6.26722 21784 ft 425 kts 33°
2026-05-04 07:17 50.45477 6.29252 21149 ft 417 kts 33°
2026-05-04 07:17 50.48004 6.31406 20480 ft 411 kts 19°
2026-05-04 07:17 50.50752 6.32397 19842 ft 402 kts
2026-05-04 07:17 50.53501 6.32315 19214 ft 391 kts 348°
2026-05-04 07:18 50.56153 6.31557 18610 ft 385 kts 346°
2026-05-04 07:18 50.58769 6.30764 17940 ft 380 kts 346°
2026-05-04 07:18 50.61355 6.29983 17199 ft 377 kts 346°
2026-05-04 07:18 50.63922 6.29220 16469 ft 375 kts 347°
2026-05-04 07:19 50.66470 6.28476 15894 ft 368 kts 347°
2026-05-04 07:19 50.68962 6.27758 15431 ft 361 kts 347°
2026-05-04 07:19 50.71422 6.27052 15036 ft 357 kts 346°
2026-05-04 07:19 50.73862 6.26352 14625 ft 354 kts 346°
2026-05-04 07:20 50.76280 6.25659 14223 ft 352 kts 346°
2026-05-04 07:20 50.78655 6.24978 13820 ft 350 kts 346°
2026-05-04 07:20 50.81044 6.24293 13389 ft 348 kts 346°
2026-05-04 07:20 50.83419 6.23610 12968 ft 345 kts 346°
2026-05-04 07:22 50.99348 6.19162 10644 ft 314 kts 348°
2026-05-04 07:22 51.01502 6.18662 10509 ft 311 kts 348°
2026-05-04 07:23 51.03646 6.18163 10381 ft 311 kts 348°
2026-05-04 07:23 51.05772 6.17664 10244 ft 304 kts 348°
2026-05-04 07:23 51.07833 6.17178 10112 ft 295 kts 348°
2026-05-04 07:23 51.09837 6.16702 9982 ft 287 kts 348°
2026-05-04 07:24 51.11803 6.16232 9706 ft 285 kts 348°
2026-05-04 07:24 51.13750 6.15763 9422 ft 282 kts 348°
2026-05-04 07:24 51.15684 6.15298 9145 ft 279 kts 348°
2026-05-04 07:24 51.17597 6.14837 8876 ft 277 kts 348°
2026-05-04 07:25 51.19494 6.14380 8602 ft 275 kts 348°
2026-05-04 07:26 51.31746 6.17251 6813 ft 274 kts 37°
2026-05-04 07:27 51.33246 6.19150 6540 ft 275 kts 37°
2026-05-04 07:27 51.34753 6.21048 6236 ft 276 kts 37°
2026-05-04 07:27 51.36265 6.22918 5957 ft 273 kts 35°
2026-05-04 07:27 51.37774 6.24749 5680 ft 271 kts 37°
2026-05-04 07:28 51.39247 6.26619 5418 ft 269 kts 38°
2026-05-04 07:28 51.40698 6.28479 5172 ft 266 kts 38°
2026-05-04 07:28 51.42133 6.30322 4919 ft 263 kts 38°
2026-05-04 07:28 51.43555 6.32148 4663 ft 261 kts 38°
2026-05-04 07:29 51.44968 6.33960 4408 ft 259 kts 38°
2026-05-04 07:29 51.46359 6.35738 4154 ft 259 kts 38°
2026-05-04 07:29 51.47765 6.37532 3911 ft 258 kts 38°
2026-05-04 07:29 51.49190 6.39346 3654 ft 256 kts 38°
2026-05-04 07:30 51.50558 6.41084 3395 ft 252 kts 38°
2026-05-04 07:30 51.51926 6.42815 3135 ft 248 kts 38°
2026-05-04 07:30 51.53254 6.44494 3020 ft 237 kts 38°
2026-05-04 07:30 51.54518 6.46094 2994 ft 227 kts 38°
2026-05-04 07:31 51.55721 6.47600 3015 ft 212 kts 34°
2026-05-04 07:31 51.57067 6.48334 2996 ft 203 kts 358°
2026-05-04 07:33 51.59802 6.35678 2501 ft 177 kts 271°
2026-05-04 07:33 51.59841 6.33714 2268 ft 175 kts 271°
2026-05-04 07:33 51.59879 6.31786 2046 ft 168 kts 271°
2026-05-04 07:33 51.59916 6.29952 1812 ft 163 kts 270°
2026-05-04 07:34 51.59952 6.28182 1598 ft 154 kts 270°
2026-05-04 07:34 51.59987 6.26478 1394 ft 152 kts 271°
2026-05-04 07:34 51.60022 6.24782 1189 ft 151 kts 271°
2026-05-04 07:34 51.60057 6.23094 986 ft 151 kts 271°
2026-05-04 07:35 51.60092 6.21424 822 ft 146 kts 271°
2026-05-04 07:35 51.60126 6.19822 606 ft 144 kts 270°
2026-05-04 07:35 51.60156 6.18222 470 ft 144 kts 270°
2026-05-04 07:35 51.60189 6.16606 261 ft 144 kts 271°
2026-05-04 07:36 51.60231 6.15023 119 ft 135 kts 271°
2026-05-04 07:36 51.60259 6.13674 116 ft 104 kts 272°
2026-05-04 07:38 51.60085 6.12864 108 ft 13 kts 92°
2026-05-04 07:38 51.60082 6.13020 109 ft 14 kts 92°
2026-05-04 07:38 51.60077 6.13185 110 ft 15 kts 92°
2026-05-04 07:38 51.60073 6.13359 113 ft 16 kts 92°
2026-05-04 07:39 51.60068 6.13557 113 ft 20 kts 92°
2026-05-04 07:39 51.60064 6.13791 114 ft 22 kts 92°
2026-05-04 07:39 51.60058 6.14057 113 ft 26 kts 92°
2026-05-04 07:39 51.60051 6.14356 111 ft 26 kts 91°
2026-05-04 07:40 51.60048 6.14610 109 ft 19 kts 89°
2026-05-04 07:40 51.60047 6.14753 111 ft 10 kts 92°
2026-05-04 07:40 51.59999 6.14800 112 ft 9 kts 180°
2026-05-04 07:40 51.59968 6.14799 112 ft 2 kts 172°
2026-05-04 07:41 51.59961 6.14814 111 ft 2 kts 109°
2026-05-04 07:41 51.59959 6.14853 113 ft 5 kts 93°
2026-05-04 07:41 51.59958 6.14874 113 ft 0 kts 92°